Time,TemperatureF,DewpointF,PressureIn,WindDirection,WindDirectionDegrees,WindSpeedMPH,WindSpeedGustMPH,Humidity,HourlyPrecipIn,Conditions,Clouds,dailyrainin,SoftwareType,DateUTC
2015-07-04 00:02:00,58.8,57.4,29.90,North,5,0.0,1.0,95,0.00,,---,0.00,VWS V13.01,2015-07-04 07:02:00,
2015-07-04 00:07:00,58.8,57.4,29.90,North,360,0.0,2.0,95,0.00,,---,0.00,VWS V13.01,2015-07-04 07:07:00,
2015-07-04 00:12:00,58.7,57.3,29.90,North,5,0.0,1.0,95,0.00,,---,0.00,VWS V13.01,2015-07-04 07:12:00,
2015-07-04 00:17:00,58.7,57.3,29.90,NNE,32,3.0,3.0,95,0.00,,---,0.00,VWS V13.01,2015-07-04 07:17:00,
2015-07-04 00:22:00,58.6,57.5,29.90,NNE,13,0.0,1.0,96,0.00,,---,0.00,VWS V13.01,2015-07-04 07:22:00,
2015-07-04 00:27:00,58.6,57.5,29.90,NNE,13,0.0,2.0,96,0.00,,---,0.00,VWS V13.01,2015-07-04 07:27:00,
2015-07-04 00:32:00,58.5,57.4,29.90,NNE,13,0.0,0.0,96,0.00,,---,0.00,VWS V13.01,2015-07-04 07:32:00,
2015-07-04 00:37:00,58.6,57.5,29.90,NNE,13,0.0,2.0,96,0.00,,---,0.00,VWS V13.01,2015-07-04 07:37:00,
2015-07-04 00:42:00,58.6,57.5,29.90,NNE,13,0.0,0.0,96,0.00,,---,0.00,VWS V13.01,2015-07-04 07:42:00,
2015-07-04 00:47:00,58.6,57.5,29.90,NNE,13,0.0,1.0,96,0.00,,---,0.00,VWS V13.01,2015-07-04 07:47:00,
2015-07-04 00:52:00,58.7,57.6,29.90,NNE,13,0.0,0.0,96,0.00,,---,0.00,VWS V13.01,2015-07-04 07:52:00,
2015-07-04 00:57:00,58.7,57.6,29.90,NNE,13,0.0,0.0,96,0.00,,---,0.00,VWS V13.01,2015-07-04 07:57:00,
2015-07-04 01:02:00,58.8,57.7,29.90,NNE,13,0.0,0.0,96,0.00,,---,0.00,VWS V13.01,2015-07-04 08:02:00,
2015-07-04 01:07:00,58.9,57.8,29.90,NNE,13,0.0,0.0,96,0.00,,---,0.00,VWS V13.01,2015-07-04 08:07:00,
2015-07-04 01:12:00,58.9,57.8,29.90,SSW,207,1.0,2.0,96,0.00,,---,0.00,VWS V13.01,2015-07-04 08:12:00,
2015-07-04 01:17:00,58.8,57.7,29.90,SSW,205,1.0,2.0,96,0.00,,---,0.00,VWS V13.01,2015-07-04 08:17:00,
2015-07-04 01:22:00,58.7,57.6,29.89,SSW,205,0.0,0.0,96,0.00,,---,0.00,VWS V13.01,2015-07-04 08:22:00,
2015-07-04 01:27:00,58.8,57.7,29.89,SSW,205,0.0,2.0,96,0.00,,---,0.00,VWS V13.01,2015-07-04 08:27:00,
2015-07-04 01:32:00,58.8,57.7,29.89,SSW,205,0.0,0.0,96,0.00,,---,0.00,VWS V13.01,2015-07-04 08:32:00,
2015-07-04 01:37:00,58.7,57.6,29.89,SSW,205,0.0,0.0,96,0.00,,---,0.00,VWS V13.01,2015-07-04 08:37:00,
2015-07-04 01:42:00,58.6,57.5,29.90,SSW,205,0.0,0.0,96,0.00,,---,0.00,VWS V13.01,2015-07-04 08:42:00,
2015-07-04 01:47:00,58.6,57.5,29.89,SSW,205,0.0,0.0,96,0.00,,---,0.00,VWS V13.01,2015-07-04 08:47:00,
2015-07-04 01:52:00,58.6,57.5,29.89,SSW,205,0.0,0.0,96,0.00,,---,0.00,VWS V13.01,2015-07-04 08:52:00,
2015-07-04 01:57:00,58.5,57.4,29.89,SW,217,0.0,0.0,96,0.00,,---,0.00,VWS V13.01,2015-07-04 08:57:00,
2015-07-04 02:02:00,58.4,57.3,29.89,SW,217,0.0,0.0,96,0.00,,---,0.00,VWS V13.01,2015-07-04 09:02:00,
2015-07-04 02:07:00,58.2,57.1,29.89,SW,217,0.0,0.0,96,0.00,,---,0.00,VWS V13.01,2015-07-04 09:07:00,
2015-07-04 02:12:00,58.2,57.1,29.89,SW,217,0.0,0.0,96,0.00,,---,0.00,VWS V13.01,2015-07-04 09:12:00,
2015-07-04 02:17:00,58.4,57.3,29.89,ESE,108,3.0,3.0,96,0.00,,---,0.00,VWS V13.01,2015-07-04 09:17:00,
2015-07-04 02:22:00,58.6,57.8,29.89,ESE,112,1.0,3.0,97,0.00,,---,0.00,VWS V13.01,2015-07-04 09:22:00,
2015-07-04 02:27:00,58.7,57.8,29.89,ESE,123,1.0,3.0,97,0.00,,---,0.00,VWS V13.01,2015-07-04 09:27:00,
2015-07-04 02:32:00,58.7,57.8,29.89,SE,125,0.0,3.0,97,0.00,,---,0.00,VWS V13.01,2015-07-04 09:32:00,
2015-07-04 02:37:00,58.7,57.8,29.89,ESE,108,0.0,2.0,97,0.00,,---,0.00,VWS V13.01,2015-07-04 09:37:00,
2015-07-04 02:42:00,58.8,58.0,29.89,ESE,108,0.0,2.0,97,0.00,,---,0.00,VWS V13.01,2015-07-04 09:42:00,
2015-07-04 02:47:00,58.9,58.0,29.89,SSE,161,0.0,1.0,97,0.00,,---,0.00,VWS V13.01,2015-07-04 09:47:00,
2015-07-04 02:52:00,58.9,58.0,29.89,SSE,166,0.0,1.0,97,0.00,,---,0.00,VWS V13.01,2015-07-04 09:52:00,
2015-07-04 02:57:00,58.8,58.0,29.89,SSE,166,0.0,0.0,97,0.00,,---,0.00,VWS V13.01,2015-07-04 09:57:00,
2015-07-04 03:02:00,58.7,57.8,29.89,SSW,209,0.0,3.0,97,0.00,,---,0.01,VWS V13.01,2015-07-04 10:02:00,
2015-07-04 03:07:00,58.7,57.8,29.89,SSW,205,0.0,2.0,97,0.01,,---,0.01,VWS V13.01,2015-07-04 10:07:00,
2015-07-04 03:12:00,58.6,57.5,29.89,South,182,0.0,3.0,96,0.01,,---,0.01,VWS V13.01,2015-07-04 10:12:00,
2015-07-04 03:17:00,58.5,57.4,29.89,SSW,213,0.0,3.0,96,0.01,,---,0.01,VWS V13.01,2015-07-04 10:17:00,
2015-07-04 03:22:00,58.4,57.3,29.89,SSW,205,1.0,3.0,96,0.01,,---,0.01,VWS V13.01,2015-07-04 10:22:00,
2015-07-04 03:27:00,58.5,57.7,29.89,SW,227,0.0,2.0,97,0.01,,---,0.01,VWS V13.01,2015-07-04 10:27:00,
2015-07-04 03:32:00,58.6,57.8,29.89,SW,227,0.0,2.0,97,0.01,,---,0.01,VWS V13.01,2015-07-04 10:32:00,
2015-07-04 03:37:00,58.5,57.7,29.89,SW,227,0.0,0.0,97,0.01,,---,0.01,VWS V13.01,2015-07-04 10:37:00,
2015-07-04 03:42:00,58.5,57.7,29.89,SW,227,0.0,0.0,97,0.01,,---,0.01,VWS V13.01,2015-07-04 10:42:00,
2015-07-04 03:47:00,58.5,57.7,29.89,SW,227,0.0,0.0,97,0.01,,---,0.01,VWS V13.01,2015-07-04 10:47:00,
2015-07-04 03:52:00,58.5,57.7,29.89,SW,227,0.0,0.0,97,0.01,,---,0.01,VWS V13.01,2015-07-04 10:52:00,
2015-07-04 03:57:00,58.4,57.6,29.89,SW,227,0.0,0.0,97,0.01,,---,0.01,VWS V13.01,2015-07-04 10:57:00,
2015-07-04 04:02:00,58.4,57.6,29.89,SW,219,0.0,0.0,97,0.01,,---,0.01,VWS V13.01,2015-07-04 11:02:00,
2015-07-04 04:07:00,58.3,57.5,29.89,SW,219,0.0,0.0,97,0.00,,---,0.01,VWS V13.01,2015-07-04 11:07:00,
2015-07-04 04:12:00,58.2,57.4,29.89,SW,219,0.0,0.0,97,0.00,,---,0.01,VWS V13.01,2015-07-04 11:12:00,
2015-07-04 04:17:00,58.2,57.4,29.89,ESE,115,0.0,3.0,97,0.00,,---,0.01,VWS V13.01,2015-07-04 11:17:00,
2015-07-04 04:22:00,58.2,57.4,29.89,ESE,115,2.0,3.0,97,0.00,,---,0.01,VWS V13.01,2015-07-04 11:22:00,
2015-07-04 04:26:00,58.2,57.4,29.89,ESE,115,0.0,2.0,97,0.00,,---,0.01,VWS V13.01,2015-07-04 11:26:00,
2015-07-04 04:31:00,58.2,57.4,29.89,ESE,115,0.0,2.0,97,0.00,,---,0.01,VWS V13.01,2015-07-04 11:31:00,
2015-07-04 04:36:00,58.2,57.4,29.89,ESE,115,0.0,0.0,97,0.00,,---,0.01,VWS V13.01,2015-07-04 11:36:00,
2015-07-04 04:41:00,58.1,57.3,29.89,East,101,2.0,3.0,97,0.00,,---,0.01,VWS V13.01,2015-07-04 11:41:00,
2015-07-04 04:46:00,58.1,57.3,29.88,ESE,103,0.0,1.0,97,0.01,,---,0.02,VWS V13.01,2015-07-04 11:46:00,
2015-07-04 04:51:00,58.0,57.2,29.88,ESE,103,0.0,1.0,97,0.01,,---,0.02,VWS V13.01,2015-07-04 11:51:00,
2015-07-04 04:56:00,57.9,57.1,29.88,ESE,103,0.0,0.0,97,0.01,,---,0.02,VWS V13.01,2015-07-04 11:56:00,
2015-07-04 05:01:00,57.8,57.0,29.88,ESE,103,0.0,0.0,97,0.01,,---,0.02,VWS V13.01,2015-07-04 12:01:00,
2015-07-04 05:06:00,57.8,57.0,29.88,ESE,103,0.0,0.0,97,0.01,,---,0.02,VWS V13.01,2015-07-04 12:06:00,
2015-07-04 05:11:00,57.7,56.9,29.88,ESE,103,0.0,0.0,97,0.01,,---,0.02,VWS V13.01,2015-07-04 12:11:00,
2015-07-04 05:16:00,57.7,56.9,29.88,ESE,103,0.0,0.0,97,0.01,,---,0.02,VWS V13.01,2015-07-04 12:16:00,
2015-07-04 05:21:00,57.7,56.9,29.88,ESE,103,0.0,0.0,97,0.01,,---,0.02,VWS V13.01,2015-07-04 12:21:00,
2015-07-04 05:26:00,57.7,56.9,29.88,ESE,103,0.0,0.0,97,0.01,,---,0.02,VWS V13.01,2015-07-04 12:26:00,
2015-07-04 05:31:00,57.7,56.9,29.88,ESE,103,0.0,0.0,97,0.01,,---,0.02,VWS V13.01,2015-07-04 12:31:00,
2015-07-04 05:36:00,57.7,56.9,29.88,ESE,103,0.0,1.0,97,0.01,,---,0.02,VWS V13.01,2015-07-04 12:36:00,
2015-07-04 05:41:00,57.7,56.9,29.88,ESE,103,0.0,1.0,97,0.01,,---,0.02,VWS V13.01,2015-07-04 12:41:00,
2015-07-04 05:46:00,57.7,56.9,29.88,ESE,103,0.0,0.0,97,0.01,,---,0.02,VWS V13.01,2015-07-04 12:46:00,
2015-07-04 05:51:00,57.7,56.9,29.88,ESE,103,0.0,0.0,97,0.01,,---,0.02,VWS V13.01,2015-07-04 12:51:00,
2015-07-04 05:56:00,57.7,56.9,29.88,ESE,103,0.0,1.0,97,0.00,,---,0.02,VWS V13.01,2015-07-04 12:56:00,
2015-07-04 06:01:00,57.6,56.8,29.88,ESE,103,0.0,1.0,97,0.00,,---,0.02,VWS V13.01,2015-07-04 13:01:00,
2015-07-04 06:06:00,57.5,56.7,29.88,ESE,103,0.0,1.0,97,0.00,,---,0.02,VWS V13.01,2015-07-04 13:06:00,
2015-07-04 06:11:00,57.5,56.7,29.88,ESE,103,0.0,1.0,97,0.00,,---,0.02,VWS V13.01,2015-07-04 13:11:00,
2015-07-04 06:16:00,57.5,56.7,29.88,East,98,0.0,1.0,97,0.00,,---,0.02,VWS V13.01,2015-07-04 13:16:00,
2015-07-04 06:21:00,57.5,56.7,29.88,East,98,0.0,1.0,97,0.00,,---,0.02,VWS V13.01,2015-07-04 13:21:00,
2015-07-04 06:26:00,57.5,56.7,29.88,East,98,0.0,0.0,97,0.00,,---,0.02,VWS V13.01,2015-07-04 13:26:00,
2015-07-04 06:31:00,57.5,56.7,29.88,East,98,0.0,0.0,97,0.00,,---,0.02,VWS V13.01,2015-07-04 13:31:00,
2015-07-04 06:36:00,57.6,56.8,29.88,East,98,0.0,2.0,97,0.00,,---,0.02,VWS V13.01,2015-07-04 13:36:00,
2015-07-04 06:41:00,57.6,56.8,29.88,East,98,0.0,2.0,97,0.00,,---,0.02,VWS V13.01,2015-07-04 13:41:00,
2015-07-04 06:46:00,57.7,56.9,29.88,East,98,0.0,0.0,97,0.00,,---,0.02,VWS V13.01,2015-07-04 13:46:00,
2015-07-04 06:51:00,57.8,57.0,29.88,East,98,0.0,0.0,97,0.00,,---,0.02,VWS V13.01,2015-07-04 13:51:00,
2015-07-04 06:56:00,57.7,56.9,29.88,East,98,0.0,0.0,97,0.00,,---,0.02,VWS V13.01,2015-07-04 13:56:00,
2015-07-04 07:01:00,57.7,56.9,29.88,ESE,108,0.0,1.0,97,0.00,,---,0.02,VWS V13.01,2015-07-04 14:01:00,
2015-07-04 07:06:00,57.7,56.9,29.88,ESE,108,0.0,0.0,97,0.00,,---,0.02,VWS V13.01,2015-07-04 14:06:00,
2015-07-04 07:11:00,57.5,56.7,29.88,ESE,108,0.0,1.0,97,0.00,,---,0.02,VWS V13.01,2015-07-04 14:11:00,
2015-07-04 07:16:00,57.4,56.6,29.88,ESE,108,0.0,0.0,97,0.00,,---,0.02,VWS V13.01,2015-07-04 14:16:00,
2015-07-04 07:21:00,57.4,56.6,29.88,ESE,108,0.0,0.0,97,0.00,,---,0.02,VWS V13.01,2015-07-04 14:21:00,
2015-07-04 07:26:00,57.6,56.8,29.89,ESE,108,0.0,0.0,97,0.00,,---,0.02,VWS V13.01,2015-07-04 14:26:00,
2015-07-04 07:31:00,57.8,57.2,29.89,ESE,108,0.0,0.0,98,0.00,,---,0.02,VWS V13.01,2015-07-04 14:31:00,
2015-07-04 07:36:00,57.8,57.0,29.89,ESE,112,0.0,0.0,97,0.00,,---,0.02,VWS V13.01,2015-07-04 14:36:00,
2015-07-04 07:41:00,57.8,57.0,29.89,ESE,112,0.0,0.0,97,0.00,,---,0.02,VWS V13.01,2015-07-04 14:41:00,
2015-07-04 07:46:00,57.8,57.0,29.89,SE,140,0.0,2.0,97,0.00,,---,0.02,VWS V13.01,2015-07-04 14:46:00,
2015-07-04 07:51:00,57.9,57.1,29.89,SE,140,0.0,2.0,97,0.00,,---,0.02,VWS V13.01,2015-07-04 14:51:00,
2015-07-04 07:56:00,58.0,57.2,29.89,SE,140,0.0,1.0,97,0.00,,---,0.02,VWS V13.01,2015-07-04 14:56:00,
2015-07-04 08:01:00,58.0,57.2,29.89,SE,140,0.0,1.0,97,0.00,,---,0.02,VWS V13.01,2015-07-04 15:01:00,
2015-07-04 08:06:00,57.9,57.1,29.89,SSW,201,1.0,2.0,97,0.00,,---,0.02,VWS V13.01,2015-07-04 15:06:00,
2015-07-04 08:11:00,57.9,57.1,29.89,SSW,201,0.0,2.0,97,0.00,,---,0.02,VWS V13.01,2015-07-04 15:11:00,
2015-07-04 08:16:00,57.9,57.1,29.89,SSW,207,0.0,2.0,97,0.00,,---,0.02,VWS V13.01,2015-07-04 15:16:00,
2015-07-04 08:21:00,58.1,57.3,29.89,SSW,207,1.0,2.0,97,0.00,,---,0.02,VWS V13.01,2015-07-04 15:21:00,
2015-07-04 08:26:00,58.0,57.2,29.89,SSW,198,0.0,3.0,97,0.00,,---,0.02,VWS V13.01,2015-07-04 15:26:00,
2015-07-04 08:31:00,58.2,57.4,29.89,SSW,198,0.0,3.0,97,0.00,,---,0.02,VWS V13.01,2015-07-04 15:31:00,
2015-07-04 08:36:00,58.3,57.7,29.89,South,171,0.0,2.0,98,0.00,,---,0.02,VWS V13.01,2015-07-04 15:36:00,
2015-07-04 08:41:00,58.4,57.6,29.89,South,171,0.0,2.0,97,0.00,,---,0.02,VWS V13.01,2015-07-04 15:41:00,
2015-07-04 08:46:00,58.5,57.9,29.89,SE,124,1.0,2.0,98,0.00,,---,0.02,VWS V13.01,2015-07-04 15:46:00,
2015-07-04 08:51:00,58.6,57.8,29.89,SW,217,0.0,2.0,97,0.00,,---,0.02,VWS V13.01,2015-07-04 15:51:00,
2015-07-04 08:56:00,58.4,57.6,29.89,NNW,342,0.0,1.0,97,0.00,,---,0.02,VWS V13.01,2015-07-04 15:56:00,
2015-07-04 09:01:00,58.9,58.3,29.89,NNW,342,0.0,1.0,98,0.00,,---,0.02,VWS V13.01,2015-07-04 16:01:00,
2015-07-04 09:06:00,59.2,58.6,29.89,ESE,109,0.0,3.0,98,0.00,,---,0.02,VWS V13.01,2015-07-04 16:06:00,
2015-07-04 09:11:00,59.5,58.9,29.89,SSW,210,0.0,3.0,98,0.00,,---,0.02,VWS V13.01,2015-07-04 16:11:00,
2015-07-04 09:16:00,59.5,58.7,29.89,ESE,113,0.0,3.0,97,0.00,,---,0.02,VWS V13.01,2015-07-04 16:16:00,
2015-07-04 09:21:00,59.8,59.2,29.89,SW,217,0.0,3.0,98,0.00,,---,0.02,VWS V13.01,2015-07-04 16:21:00,
2015-07-04 09:26:00,60.1,59.2,29.89,ESE,107,1.0,2.0,97,0.00,,---,0.02,VWS V13.01,2015-07-04 16:26:00,
2015-07-04 09:31:00,60.2,59.3,29.89,ESE,103,1.0,4.0,97,0.00,,---,0.02,VWS V13.01,2015-07-04 16:31:00,
2015-07-04 09:36:00,60.5,59.7,29.89,SE,137,0.0,2.0,97,0.00,,---,0.02,VWS V13.01,2015-07-04 16:36:00,
2015-07-04 09:41:00,60.9,60.3,29.89,SSW,195,0.0,2.0,98,0.00,,---,0.02,VWS V13.01,2015-07-04 16:41:00,
2015-07-04 09:46:00,61.1,60.2,29.89,SSE,165,1.0,3.0,97,0.00,,---,0.02,VWS V13.01,2015-07-04 16:46:00,
2015-07-04 09:51:00,61.1,60.2,29.88,SSE,157,0.0,3.0,97,0.00,,---,0.02,VWS V13.01,2015-07-04 16:51:00,
2015-07-04 09:56:00,61.1,60.2,29.88,SE,130,0.0,1.0,97,0.00,,---,0.02,VWS V13.01,2015-07-04 16:56:00,
2015-07-04 10:01:00,61.3,60.2,29.88,SW,217,1.0,2.0,96,0.00,,---,0.02,VWS V13.01,2015-07-04 17:01:00,
2015-07-04 10:06:00,61.3,60.2,29.89,SSW,196,0.0,1.0,96,0.00,,---,0.02,VWS V13.01,2015-07-04 17:06:00,
2015-07-04 10:11:00,61.3,59.9,29.88,SW,219,1.0,5.0,95,0.00,,---,0.02,VWS V13.01,2015-07-04 17:11:00,
2015-07-04 10:16:00,61.5,60.1,29.88,South,188,1.0,3.0,95,0.00,,---,0.02,VWS V13.01,2015-07-04 17:16:00,
2015-07-04 10:21:00,61.3,59.6,29.88,SSW,205,3.0,5.0,94,0.00,,---,0.02,VWS V13.01,2015-07-04 17:21:00,
2015-07-04 10:26:00,61.3,59.6,29.88,SSW,198,3.0,4.0,94,0.00,,---,0.02,VWS V13.01,2015-07-04 17:26:00,
2015-07-04 10:31:00,61.5,59.8,29.88,SW,217,3.0,5.0,94,0.00,,---,0.02,VWS V13.01,2015-07-04 17:31:00,
2015-07-04 10:36:00,61.4,59.4,29.88,SW,227,3.0,5.0,93,0.00,,---,0.02,VWS V13.01,2015-07-04 17:36:00,
2015-07-04 10:41:00,61.5,59.5,29.88,SSW,195,0.0,5.0,93,0.00,,---,0.02,VWS V13.01,2015-07-04 17:41:00,
2015-07-04 10:46:00,61.8,59.8,29.89,South,190,3.0,6.0,93,0.00,,---,0.02,VWS V13.01,2015-07-04 17:46:00,
2015-07-04 10:51:00,62.2,59.8,29.89,SW,218,1.0,6.0,92,0.00,,---,0.02,VWS V13.01,2015-07-04 17:51:00,
2015-07-04 10:56:00,62.5,60.2,29.89,SW,218,1.0,5.0,92,0.00,,---,0.02,VWS V13.01,2015-07-04 17:56:00,